Location: Andrest
(43.3200°N, 0.0641°E)
Time: 20:53:31
(UTC+00:00)

X-37B - Pass Details

Date: 01 December 2020
Orbit: 385 x 390 km, 45.0° (Epoch: 20 January)

Event Time Altitude Azimuth Distance (km) Brightness Sun altitude
Rises 17:17:48 0° 249° (WSW) 2,255 6.9 -9.5°
Reaches altitude 10° 17:19:51 10° 247° (WSW) 1,403 5.1 -9.8°
Maximum altitude 17:23:00 76° 163° (SSE) 400 0.6 -10.4°
Enters shadow 17:25:19 17° 78° (ENE) 1,063 2.1 -10.8°
